Wind_Speed
14 14 14 14 13 13 13 12 12 11 11 10 9 9 8 8 7 8 8 8 8 8 8 8 7 6 6 6 6 6 6 5 5 5 4 3 3 3 3 3 4 4 5
16 17 16 16 15 15 14 14 14 13 13 12 11 10 10 9 8 8 9 8 9 9 9 9 8 7 7 7 7 7 6 6 5 5 4 3 2 2 2 2 2 3 3
18 18 18 18 17 17 16 16 16 15 14 14 13 13 12 11 10 9 9 9 9 10 10 10 9 9 8 8 8 7 7 7 6 5 5 4 3 2 1 1 1 1 2
20 20 19 19 19 19 19 18 18 17 16 16 15 15 14 13 12 11 10 10 10 11 11 11 11 10 10 9 9 9 8 8 7 7 6 5 4 4 3 1 1 1 1
22 21 21 21 21 21 20 20 20 19 19 18 17 17 16 15 14 13 12 12 12 12 12 12 12 12 11 11 10 10 10 9 8 8 7 7 6 5 4 3 2 2 2
23 23 23 23 22 22 22 22 22 21 21 20 19 19 18 17 16 16 15 14 14 14 14 14 13 13 12 12 11 11 11 11 10 9 9 8 8 7 6 5 5 4 4
25 25 25 24 24 23 23 23 23 23 23 22 22 21 20 20 19 18 17 16 15 15 15 15 14 14 14 13 13 12 12 12 12 11 10 10 9 9 8 7 7 7 7
27 27 27 26 25 25 25 24 24 24 24 24 23 23 22 22 21 20 19 18 17 16 16 16 15 15 15 15 14 13 13 13 13 13 12 12 11 11 10 10 9 9 9
28 28 28 28 28 27 26 26 25 25 25 25 25 24 24 23 23 22 21 20 19 18 17 17 17 17 17 16 16 16 15 14 14 14 14 13 13 13 13 12 12 12 11
30 30 30 30 29 29 28 27 27 27 27 27 26 26 25 25 24 24 23 22 21 21 20 19 18 19 19 18 18 18 18 17 16 16 16 16 15 15 15 15 14 14 14
30 30 30 30 30 30 29 28 28 28 28 28 27 27 26 26 25 25 24 24 23 23 22 21 20 20 21 20 20 19 19 19 18 18 18 18 17 17 17 17 17 17 16
28 29 30 30 30 30 30 30 29 29 29 29 28 28 28 27 26 26 25 25 25 24 23 23 22 22 22 22 22 21 21 21 20 19 19 19 19 19 18 19 19 19 18
29 29 29 30 30 30 30 30 30 30 30 29 29 29 29 28 28 27 27 26 26 25 25 24 24 23 23 23 23 23 22 22 22 21 20 20 20 20 19 20 20 20 20
29 29 29 29 30 30 31 31 31 31 31 30 30 30 30 29 28 28 28 28 28 28 27 26 26 25 24 25 25 25 24 25 25 24 23 22 22 22 22 22 22 22 22
29 29 29 30 30 30 31 31 31 31 31 31 31 31 30 30 29 29 28 29 29 29 29 29 28 27 27 27 27 26 26 27 27 27 26 25 25 25 25 24 24 24 23
30 29 30 30 30 30 31 32 32 32 32 32 32 32 31 31 31 31 30 30 29 29 29 28 28 28 28 28 27 28 28 28 29 29 29 28 28 28 28 28 27 26 26
31 30 30 31 31 31 31 31 32 32 33 33 33 33 32 32 32 32 31 31 30 30 30 29 29 29 29 29 29 29 29 29 29 30 30 30 30 30 30 30 29 29 28
33 31 31 32 32 32 32 32 32 32 33 33 33 33 33 33 33 33 33 33 32 31 31 31 30 31 31 31 31 31 31 31 30 30 31 32 32 32 32 32 32 31 31
34 33 32 32 33 34 34 34 33 33 33 33 34 34 34 34 34 34 34 34 34 33 32 33 32 32 32 32 32 32 32 32 32 31 31 32 33 32 33 33 34 33 33
35 34 34 33 34 34 35 35 34 34 34 34 34 34 34 34 35 35 35 35 35 35 34 34 33 33 34 33 33 33 33 33 33 33 32 32 33 33 34 34 35 35 35
37 36 35 34 34 34 34 34 34 34 35 35 35 35 35 35 36 36 36 36 36 36 36 35 35 35 35 35 34 34 34 35 35 35 34 33 34 34 35 36 36 37 37
38 37 36 36 35 35 35 35 36 36 36 36 36 36 36 36 37 37 37 37 37 37 37 37 36 36 36 37 37 36 35 35 36 35 35 36 36 36 36 37 37 38 38
39 38 37 36 36 36 37 37 37 37 37 36 36 37 37 38 38 38 39 39 39 39 39 39 39 38 38 38 38 38 38 37 36 36 36 37 38 38 38 39 39 40 41
39 39 39 38 37 36 37 38 38 37 37 36 37 38 39 39 39 39 40 40 40 39 39 40 40 40 40 40 40 39 40 39 39 38 38 38 39 39 40 40 40 41 42
41 41 40 38 38 38 38 39 39 39 38 38 38 39 39 40 40 39 39 40 40 40 39 40 40 40 40 40 40 40 40 40 40 40 40 40 40 41 41 41 41 42 42
42 42 41 39 38 38 39 40 40 39 39 39 39 39 39 39 39 39 39 40 40 40 40 40 40 40 40 40 40 40 40 41 41 41 41 41 41 42 42 43 43 43 43
Wind_Direction
232 230 229 230 229 227 225 225 222 223 225 225 224 221 217 214 214 215 212 213 213 212 211 208 204 201 199 198 198 198 196 192 186 180 168 152 136 120 110 98 85 76 66
235 234 233 233 233 232 231 230 229 228 229 229 228 226 223 220 220 220 220 221 222 222 219 217 214 214 210 207 208 205 204 203 203 197 190 183 173 155 132 109 89 72 61
237 236 236 235 235 234 234 233 232 231 231 231 231 229 228 227 226 225 226 227 229 228 226 223 221 221 218 215 214 211 210 210 211 209 208 210 210 207 189 156 97 56 42
237 237 237 236 236 235 235 235 234 234 233 233 233 233 233 233 232 231 230 233 234 231 229 229 227 227 224 222 221 219 220 222 224 222 224 226 227 226 225 233 256 326 4
237 237 237 237 237 237 236 236 236 235 235 235 235 235 235 236 237 236 236 238 238 236 234 233 232 232 230 228 226 227 228 229 229 228 230 234 238 237 240 246 255 272 293
238 238 237 238 238 238 238 237 237 237 236 236 235 236 237 238 239 239 239 241 242 239 238 238 236 233 232 232 231 232 234 235 235 233 235 239 243 243 245 250 257 265 276
239 239 238 239 239 240 240 240 240 239 238 237 237 237 237 238 240 241 242 243 244 242 239 239 239 235 234 237 237 238 239 241 242 239 239 243 247 248 249 253 260 265 271
239 240 240 239 240 240 241 241 241 240 239 238 238 238 238 239 240 242 243 244 244 243 241 240 240 239 237 238 240 241 242 244 245 245 246 247 252 254 254 255 260 265 270
241 241 241 241 240 241 241 241 241 241 240 239 239 239 239 240 241 242 243 243 243 242 242 243 243 241 240 241 241 243 246 247 248 249 250 251 254 257 258 257 260 264 268
243 242 242 242 241 241 241 241 241 241 240 239 239 239 240 241 242 242 242 243 242 243 244 244 246 243 241 242 243 245 248 248 249 250 251 253 255 257 260 260 261 263 266
244 243 243 242 241 241 240 240 241 240 240 240 240 240 240 241 242 243 242 243 243 244 245 246 247 246 244 245 245 247 249 249 250 250 251 253 255 258 259 261 262 264 265
243 243 242 242 241 240 240 240 240 240 239 239 240 241 241 242 242 243 243 244 244 244 245 246 247 247 247 246 246 247 250 250 251 250 252 254 256 258 260 262 262 263 264
242 241 241 241 240 239 240 240 240 239 239 239 240 241 241 242 243 243 244 244 244 245 245 246 247 248 248 248 247 248 250 251 251 253 254 255 256 258 260 261 262 263 264
242 241 240 240 240 239 239 240 240 240 240 240 239 240 241 242 243 243 244 245 245 246 246 247 248 248 249 249 249 249 251 252 253 254 256 258 258 258 260 261 262 263 264
241 240 240 240 240 240 240 239 239 240 240 240 241 241 241 242 244 244 245 246 247 248 248 247 248 249 250 250 251 251 252 254 255 256 257 258 259 260 260 260 262 262 263
240 240 239 239 240 241 241 241 241 240 240 240 241 241 242 243 243 244 246 247 247 247 248 248 247 249 250 251 252 253 254 255 255 256 257 258 259 261 261 261 261 261 263
240 240 241 240 241 242 242 242 243 242 242 242 241 241 242 243 244 245 246 247 248 248 248 249 249 249 250 251 252 253 255 257 257 258 258 258 259 260 261 261 261 262 263
240 240 241 241 241 242 243 243 243 243 243 242 241 241 242 243 244 245 246 246 248 249 249 250 250 251 251 252 253 254 255 257 259 259 259 260 260 261 261 261 260 263 265
240 241 242 242 243 243 243 244 243 243 243 242 241 241 242 243 244 245 246 247 248 249 250 251 252 252 253 254 255 255 257 258 259 259 260 261 262 263 263 262 262 263 265
240 241 241 242 244 244 244 244 243 244 243 242 242 241 243 244 244 246 247 247 248 249 250 252 252 254 255 254 256 257 258 260 261 261 261 262 263 263 263 263 262 264 265
241 242 242 243 245 245 245 244 243 242 241 241 242 241 243 244 245 246 247 248 248 249 250 251 252 254 256 256 258 258 258 259 261 262 262 264 264 264 264 264 264 263 265
242 243 244 244 244 245 244 243 243 242 242 242 241 242 244 245 246 247 247 248 248 249 250 251 252 254 256 258 258 259 260 260 260 261 263 264 265 265 265 264 265 265 265
241 243 243 244 245 244 243 243 243 243 243 243 243 244 245 247 248 248 248 248 249 250 250 251 252 254 255 258 259 260 261 261 261 263 263 265 265 266 266 266 266 267 267
240 241 242 244 244 243 242 242 242 243 244 244 245 246 247 248 249 250 249 249 250 251 251 252 253 254 257 258 260 262 263 263 262 264 264 265 265 266 267 268 268 268 268
239 240 241 242 243 243 243 242 243 245 245 244 246 247 248 249 249 250 250 250 251 252 252 253 254 256 258 259 260 262 263 263 264 265 264 264 265 266 267 268 268 268 269
238 239 240 241 242 243 243 243 244 245 245 245 245 246 248 249 249 250 251 251 251 252 252 253 254 255 257 259 260 262 263 264 265 265 265 265 265 266 267 267 267 268 269
Height
5848 5849 5851 5852 5853 5854 5855 5857 5858 5859 5860 5861 5862 5863 5864 5865 5866 5867 5867 5868 5869 5869 5870 5870 5871 5872 5872 5873 5873 5874 5874 5875 5875 5875 5875 5876 5876 5875 5875 5875 5875 5874 5874
5846 5847 5848 5850 5851 5852 5853 5855 5856 5857 5859 5860 5861 5862 5863 5864 5865 5866 5867 5867 5868 5868 5869 5870 5871 5871 5872 5872 5873 5874 5874 5875 5875 5875 5875 5876 5876 5875 5875 5875 5875 5874 5874
5843 5844 5845 5847 5848 5850 5851 5852 5854 5855 5857 5858 5859 5861 5862 5863 5864 5865 5865 5866 5867 5867 5868 5869 5870 5871 5871 5872 5873 5873 5874 5874 5875 5875 5875 5875 5875 5875 5875 5875 5875 5874 5874
5839 5840 5842 5844 5845 5846 5848 5849 5851 5853 5854 5856 5857 5859 5860 5861 5862 5863 5864 5865 5865 5866 5867 5868 5869 5869 5870 5871 5872 5873 5873 5874 5874 5874 5875 5875 5875 5875 5875 5875 5875 5874 5874
5835 5836 5838 5840 5841 5843 5845 5846 5848 5850 5852 5853 5855 5856 5858 5859 5860 5861 5862 5863 5864 5865 5865 5866 5867 5868 5869 5870 5871 5872 5872 5872 5873 5873 5874 5874 5874 5874 5874 5874 5874 5874 5874
5830 5832 5834 5836 5837 5839 5841 5843 5845 5846 5848 5850 5852 5854 5855 5857 5858 5859 5860 5861 5862 5862 5863 5864 5865 5866 5867 5868 5869 5870 5871 5871 5872 5872 5873 5873 5873 5873 5873 5873 5873 5873 5873
5825 5827 5829 5831 5833 5835 5837 5839 5841 5843 5845 5847 5848 5850 5852 5854 5855 5856 5857 5858 5859 5860 5861 5862 5863 5865 5866 5867 5868 5868 5869 5869 5870 5870 5871 5871 5872 5872 5872 5872 5872 5872 5872
5820 5822 5824 5826 5828 5830 5832 5834 5836 5838 5840 5842 5844 5846 5848 5850 5852 5853 5854 5856 5856 5858 5859 5860 5861 5862 5863 5864 5865 5866 5867 5867 5868 5868 5869 5869 5870 5870 5870 5870 5870 5870 5870
5814 5816 5818 5821 5823 5825 5827 5829 5832 5834 5836 5838 5840 5842 5844 5846 5848 5849 5851 5852 5853 5855 5856 5858 5859 5860 5861 5862 5863 5864 5864 5865 5865 5866 5867 5867 5867 5868 5868 5868 5868 5868 5868
5808 5810 5813 5815 5817 5820 5822 5824 5826 5828 5831 5833 5835 5838 5840 5842 5843 5845 5847 5848 5850 5851 5853 5854 5856 5857 5858 5859 5860 5861 5861 5862 5863 5863 5864 5864 5865 5865 5865 5865 5865 5865 5865
5802 5804 5806 5809 5811 5814 5816 5818 5821 5823 5825 5828 5830 5833 5835 5837 5839 5841 5843 5844 5846 5847 5849 5851 5852 5853 5854 5855 5856 5857 5858 5859 5860 5860 5861 5861 5862 5862 5862 5862 5862 5862 5862
5796 5798 5800 5802 5805 5808 5810 5812 5815 5817 5820 5822 5825 5827 5830 5832 5834 5836 5838 5840 5842 5843 5845 5846 5848 5849 5850 5852 5853 5854 5854 5855 5856 5857 5857 5858 5858 5858 5859 5859 5859 5859 5859
5789 5791 5794 5796 5799 5801 5804 5806 5809 5811 5814 5817 5819 5822 5825 5827 5829 5831 5833 5835 5837 5839 5840 5842 5843 5845 5846 5847 5848 5850 5850 5851 5852 5853 5853 5854 5854 5854 5855 5855 5855 5855 5855
5783 5785 5787 5790 5792 5795 5797 5800 5802 5805 5808 5810 5813 5816 5819 5822 5824 5826 5828 5830 5832 5834 5835 5837 5839 5840 5841 5842 5844 5845 5846 5847 5847 5848 5849 5850 5850 5850 5850 5850 5850 5850 5851
5776 5779 5781 5783 5786 5788 5791 5794 5796 5799 5802 5804 5808 5810 5813 5816 5818 5820 5822 5824 5826 5828 5830 5831 5833 5835 5836 5837 5838 5840 5841 5842 5842 5843 5844 5844 5845 5845 5845 5845 5845 5845 5846
5770 5772 5774 5777 5779 5782 5784 5787 5790 5792 5795 5798 5801 5804 5807 5810 5812 5815 5817 5818 5820 5822 5824 5825 5827 5829 5830 5832 5833 5834 5835 5836 5837 5838 5838 5839 5839 5840 5840 5840 5840 5840 5841
5763 5765 5768 5770 5773 5775 5778 5780 5783 5785 5788 5791 5794 5797 5800 5803 5806 5808 5810 5812 5814 5816 5818 5820 5821 5823 5824 5826 5827 5828 5829 5830 5831 5831 5832 5833 5833 5834 5834 5834 5834 5835 5835
5755 5758 5760 5763 5765 5768 5770 5773 5776 5778 5781 5784 5787 5790 5793 5796 5799 5801 5804 5806 5808 5810 5812 5813 5815 5817 5818 5819 5820 5822 5823 5824 5824 5825 5825 5826 5826 5827 5827 5827 5828 5828 5828
5748 5750 5753 5755 5758 5760 5763 5765 5768 5771 5774 5777 5780 5783 5786 5789 5791 5794 5796 5798 5801 5803 5805 5807 5809 5810 5811 5813 5814 5815 5816 5817 5817 5818 5819 5819 5819 5820 5820 5820 5821 5821 5821
5739 5742 5745 5747 5750 5752 5755 5757 5760 5764 5766 5769 5772 5775 5778 5781 5784 5786 5788 5791 5793 5795 5797 5799 5801 5803 5804 5806 5807 5808 5809 5810 5810 5811 5811 5812 5812 5812 5813 5813 5813 5813 5814
5730 5733 5737 5739 5742 5744 5747 5750 5753 5756 5759 5762 5764 5767 5770 5773 5776 5778 5781 5783 5785 5787 5790 5792 5793 5795 5796 5798 5799 5800 5801 5802 5803 5803 5804 5804 5804 5804 5805 5805 5805 5805 5805
5722 5725 5728 5731 5733 5736 5739 5742 5745 5747 5750 5753 5757 5760 5762 5765 5767 5770 5772 5774 5777 5779 5781 5783 5785 5787 5788 5790 5791 5792 5793 5794 5795 5795 5795 5796 5796 5796 5796 5796 5796 5796 5796
5713 5716 5719 5722 5725 5728 5731 5733 5736 5739 5742 5746 5749 5752 5754 5756 5759 5761 5763 5765 5767 5770 5772 5774 5776 5778 5779 5781 5782 5783 5785 5785 5786 5787 5787 5787 5787 5787 5787 5787 5787 5787 5787
5704 5706 5710 5713 5716 5719 5722 5725 5728 5731 5735 5738 5740 5742 5745 5747 5749 5751 5754 5756 5758 5761 5763 5765 5767 5769 5770 5772 5773 5774 5775 5776 5777 5778 5778 5777 5777 5778 5778 5777 5777 5777 5777
5693 5697 5700 5703 5707 5710 5713 5716 5719 5722 5725 5728 5730 5733 5735 5738 5740 5742 5744 5746 5749 5751 5753 5755 5757 5759 5761 5762 5763 5764 5765 5766 5767 5767 5768 5768 5768 5768 5768 5768 5767 5767 5766
5682 5686 5690 5694 5697 5701 5704 5707 5710 5712 5715 5718 5721 5724 5726 5728 5730 5733 5735 5737 5739 5741 5743 5745 5747 5749 5751 5752 5753 5754 5755 5756 5756 5757 5757 5758 5758 5758 5758 5757 5757 5756 5756